Regional Weather Roundup
Issued by NWS Green Bay, WI

Home | Current Version | Previous Version | Text Only | Print | Product List | Glossary On
Versions: 1 2 3 4 5 6 7 8 9 10 11 12 13 14 15 16 17 18 19 20 21 22 23 24 25 26 27 28 29 30 31 32 33 34 35 36 37 38 39 40 41 42 43 44 45 46 47 48 49 50
000
ASUS43 KGRB 312000
RWRGRB

NORTH-CENTRAL AND NORTHEAST WISCONSIN REGIONAL WEATHER ROUNDUP
NATIONAL WEATHER SERVICE GREEN BAY WI
300 PM CDT FRI JUL 31 2015

WIZ005-009-010>012-018-019-312100-
NORTH CENTRAL WISCONSIN

CITY           SKY/WX    TMP DP  RH WIND       PRES   REMARKS
IRONWOOD       SUNNY     73  54  49 W18       29.90F
MANITOWISH WTR NOT AVBL
ARBOR VITAE    NOT AVBL
EAGLE RIVER    NOT AVBL
LAND O LAKES   NOT AVBL
RHINELANDER    MOSUNNY   76  48  37 NW10G25   29.94F
PHILLIPS       NOT AVBL
ANTIGO         NOT AVBL
TOMAHAWK       NOT AVBL
MERRILL        NOT AVBL
$$

WIZ013-073-312100-
NORTHEAST WISCONSIN

CITY           SKY/WX    TMP DP  RH WIND       PRES   REMARKS
IRON MOUNTAIN  PTSUNNY   78  49  35 NW16G30   29.87S
MARINETTE      PTSUNNY   79  52  38 NW7       29.85S
$$

WIZ017-030-035>037-045-312100-
CENTRAL WISCONSIN

CITY           SKY/WX    TMP DP  RH WIND       PRES   REMARKS
MEDFORD        NOT AVBL
WAUSAU         PTSUNNY   78  50  37 NW17G24   29.93F
MOSINEE        PTSUNNY   77  50  38 NW16G28   29.96F
MARSHFIELD     MOSUNNY   79  50  36 NW18G28   29.98S
WISC RAPIDS    MOSUNNY   82  48  30 NW16G26   29.98F
STEVENS POINT  NOT AVBL
WAUPACA        NOT AVBL
SHAWANO        NOT AVBL
CLINTONVILLE   NOT AVBL
$$

WIZ038-039-048-051-312100-
FOX VALLEY

CITY           SKY/WX    TMP DP  RH WIND       PRES   REMARKS
NWS GREEN BAY  MOSUNNY   81  53  37 W17       29.89F
APPLETON       PTSUNNY   77  46  33 NW16G23   29.93F
OSHKOSH        MOSUNNY   79  51  37 NW12G25   29.92F
FOND DU LAC    MOSUNNY   80  50  34 NW17G25   29.94S
$$

WIZ022-050-052-312100-
EAST CENTRAL WISCONSIN

CITY           SKY/WX    TMP DP  RH WIND       PRES   REMARKS
STURGEON BAY   MOSUNNY   81  52  36 NW14G20   29.89S
MANITOWOC      NOT AVBL
SHEBOYGAN      PTSUNNY   81  51  35 W17G28    29.91F
$$

LMZ563-521-522-541>543-312100-
LAKESHORE

STATION/POSITION TIME  TEMP    WIND        PRES    VSBY  WAVE
                       AIR SEA DIR/SP/G                  HT/PER
                 (UTC) (F)     (DEG/KT/KT) (MB)    (MI)  (FT/S)
SHEBOYGAN LKSHOR 1900   78     280/ 19/ 22 1012.9F
KEWAUNEE LKSHORE 1900   79     290/ 12/ 19 1011.3F
ALGOMA MARINA    1912          310/ 11/ 17   N/A
NORTHPORT PIER   1900   76     290/  7/ 15 1010.5S
N MID LAKE BUOY  1850   71 69  240/  8/ 10 1009.9F         1/ 4
S GREEN BAY BUOY 1900   73 71  320/ 10/ 14 1013.2S
CHAMBERS ISLAND  1900   76     310/  6/ 10 1010.5F
MENOMINEE LKSHOR 1900   76     310/ 12/ 17 1011.8F
$$



USA.gov is the U.S. government's official web portal to all federal, state and local government web resources and services.